RH
20 21 22 28 33 40 47 53 59 79 72 68 76 74 74 73 77 76 69 66 62 56 49 48 46 40 36 39 38 40 37 34 38 52 59 61 62 63 61 64 65 53 52 66
22 21 16 18 26 35 42 48 75 73 72 75 93 80 76 75 74 74 73 71 68 59 56 47 44 40 39 34 36 37 35 34 34 37 53 61 54 55 64 60 56 53 54 59
21 17 15 14 19 29 39 42 61 64 75 72 85 84 84 76 75 78 76 76 76 66 58 52 47 40 38 36 31 32 34 33 33 40 52 62 76 57 69 63 56 53 53 51
19 18 19 15 18 23 33 38 47 63 62 68 62 88 84 85 81 77 80 79 78 70 62 61 54 45 39 38 36 29 31 34 32 38 45 61 66 64 66 58 56 48 52 49
18 19 22 20 16 19 30 37 49 55 57 68 75 79 76 81 86 81 77 83 81 73 69 67 61 53 51 43 36 34 25 30 30 39 45 57 56 59 68 64 54 50 49 48
18 20 22 22 19 18 30 35 51 53 57 58 60 73 90 83 84 79 80 79 83 82 78 75 68 64 54 51 39 37 29 25 27 33 36 50 55 66 83 66 68 54 51 44
19 21 24 24 24 20 30 38 49 58 62 61 47 70 72 71 76 73 81 80 83 82 81 76 70 67 61 67 51 40 28 24 25 28 31 45 56 69 69 65 67 56 56 51
27 27 25 25 25 24 38 44 50 59 52 45 42 75 65 66 72 76 71 86 82 83 76 73 73 70 68 67 65 46 32 25 25 24 33 52 57 60 66 67 70 67 79 66
42 28 28 26 24 27 37 42 36 46 45 38 58 66 66 61 67 66 66 68 87 88 85 83 79 78 75 71 65 62 42 30 27 30 31 32 41 52 56 64 63 61 67 61
51 42 37 37 29 29 40 38 43 46 46 46 66 69 73 71 68 71 70 73 80 77 76 80 87 77 78 87 70 69 58 45 32 33 36 34 36 45 48 48 57 61 56 61
54 46 44 39 37 33 35 36 39 42 44 51 72 79 79 83 79 78 79 74 69 68 69 74 80 86 87 85 90 75 69 66 58 47 40 41 41 38 42 46 51 51 57 63
43 52 53 38 33 34 44 33 38 46 47 55 67 84 88 93 87 79 77 74 71 68 71 73 74 87 87 71 99 91 85 87 75 67 59 46 41 44 45 44 43 43 41 42
47 55 56 44 35 31 35 42 32 36 44 54 61 85 86 83 86 76 75 72 71 68 64 63 64 66 66 72 81 88 98 92 86 85 65 64 54 48 52 54 47 47 44 39
50 51 59 58 45 33 27 38 33 31 46 61 62 81 87 83 82 79 78 72 70 65 61 60 60 64 71 72 75 74 86 88 86 84 81 81 73 70 58 56 53 52 50 49
49 52 51 50 43 33 28 29 35 34 52 54 64 77 86 81 79 72 75 72 67 67 65 65 67 64 68 70 67 66 71 79 83 94 85 88 75 86 72 70 68 61 61 57
44 54 49 51 43 35 30 24 29 36 49 52 58 77 80 80 77 73 74 72 66 63 66 64 64 64 60 60 64 64 65 79 81 82 84 85 85 97 85 62 77 66 64 62
41 49 56 52 47 43 38 32 28 30 44 45 63 75 90 88 79 70 72 68 62 58 56 56 55 56 57 53 52 57 60 65 77 86 84 85 96 94 87 77 83 78 67 64
44 46 50 55 52 49 42 37 31 32 48 50 57 71 76 85 76 70 63 61 59 55 52 49 49 49 47 49 48 47 48 50 59 68 75 78 83 88 89 86 86 76 68 64
40 43 48 51 53 47 47 45 39 43 56 45 54 70 71 66 70 76 68 60 58 55 52 49 45 43 44 44 44 44 44 44 42 42 48 56 61 67 75 80 83 81 68 64
23 33 41 47 60 60 52 46 44 41 59 50 51 55 62 65 65 63 63 59 53 50 47 44 42 41 38 38 39 38 36 36 36 34 34 32 32 36 44 54 60 70 82 77
33 32 32 38 57 60 52 49 45 46 65 69 56 55 58 59 61 65 57 54 49 44 41 39 38 37 35 31 29 31 30 29 27 25 25 25 26 26 28 30 36 44 53 59
46 44 37 34 44 59 50 51 53 57 57 57 67 61 56 52 51 51 50 48 47 47 44 42 40 36 33 31 29 27 25 26 24 21 19 17 17 18 19 21 23 27 33 39
56 50 54 54 56 49 47 49 57 58 56 57 55 55 52 51 52 52 50 48 44 44 44 41 37 32 30 29 28 28 26 23 21 20 19 18 18 15 14 15 17 20 24 27
50 49 55 59 64 58 56 52 48 51 53 54 53 50 52 47 46 46 45 44 41 40 37 33 31 29 27 24 22 22 21 21 20 20 21 22 21 20 19 17 17 17 19 21
54 57 50 57 64 67 66 62 58 52 52 51 46 47 48 44 43 41 38 36 33 32 31 28 27 26 24 22 20 18 16 15 14 14 15 18 20 20 21 20 20 20 22 22
63 63 61 56 57 59 60 59 57 51 44 44 41 30 33 35 35 33 32 29 28 29 26 23 20 19 19 19 19 19 17 14 14 13 13 13 13 14 15 17 18 21 23 22